Hourly Data Report for October 17, 2012

All times are specified in Local Standard Time (LST). Add 1 hour to adjust for Daylight Saving Time where and when it is observed.

IQALUIT CLIMATE
NUNAVUT

63°44'50.000" N
68°32'40.000" W
33.50 m
2402592
71321
XFB

Download Data

Hourly Data (October 2012)
Hourly Data Report for October 17, 2012
Temp Definition
°C
Dew Point Temp Definition
°C
Rel Hum Definition
%
Wind Dir Definition
10's deg

Wind Spd Definition
km/h
Visibility Definition
km
Stn Press Definition
kPa
Hmdx Definition


Wind Chill Definition


Weather Definition


TIME
00:00 -2.1 -4.6 83 14 22   101.11   -8 LegendNANA
01:00 -1.5 -4.0 83 15 28   101.16   -8 LegendNANA
02:00 -1.2 -3.3 86 16 20   101.21   -7 LegendNANA
03:00 -0.8 -3.1 84 17 13   101.28   -5 LegendNANA
04:00 -0.6 -3.5 81 17 11   101.34   -4 LegendNANA
05:00 -1.2 -4.2 80 17 9   101.36   -4 LegendNANA
06:00 -1.2 -4.3 79 17 17   101.39   -6 LegendNANA
07:00 -1.5 -4.3 81 15 13   101.45   -6 LegendNANA
08:00 -1.8 -4.2 84 13 15   101.47   -7 LegendNANA
09:00 -2.3 -4.5 85 13 17   101.50   -8 LegendNANA
10:00 -2.0 -4.1 86 13 15   101.52   -7 LegendNANA
11:00 -2.0 -4.5 83 13 15   101.51   -7 LegendNANA
12:00 -1.6 -4.8 79 10 9   101.48   -5 LegendNANA
13:00 -2.2 -5.2 80 7 9   101.48   -6 LegendNANA
14:00 -2.5 -5.5 80 7 7   101.49   -5 LegendNANA
15:00 -4.9 -7.6 81 3 7   101.49   -8 LegendNANA
16:00 -5.6 -7.5 86 1 7   101.50   -9 LegendNANA
17:00 -6.9 -8.8 86 36 11   101.49   -12 LegendNANA
18:00 -5.3 -8.3 79 4 13   101.46   -10 LegendNANA
19:00 -7.8 -10.3 82 2 6   101.43   -11 LegendNANA
20:00 -7.6 -9.4 87 1 6   101.39   -11 LegendNANA
21:00 -8.5 -10.8 83 1 6   101.37   -12 LegendNANA
22:00 -8.3 -10.3 85 36 6   101.34   -12 LegendNANA
23:00 -7.9 -9.7 87 4 4   101.32   -10 LegendNANA

Notes on Data Quality.

Legend

  • E = Estimated
  • M = Missing
  • NA = Not Available
Date modified: